TimePDT,TemperatureF,Dew PointF,Humidity,Sea Level PressureIn,VisibilityMPH,Wind Direction,Wind SpeedMPH,Gust SpeedMPH,PrecipitationIn,Events,Conditions,WindDirDegrees,DateUTC
12:00 AM,62.1,53.1,72,30.00,8.0,Calm,Calm,-,N/A,,Clear,0,1989-10-19 07:00:00
1:00 AM,61.0,51.1,70,30.00,8.0,SW,4.6,-,N/A,,Clear,230,1989-10-19 08:00:00
2:00 AM,61.0,54.0,78,30.00,8.0,Calm,Calm,-,N/A,,Clear,0,1989-10-19 09:00:00
3:00 AM,59.0,54.0,83,30.00,8.0,Calm,Calm,-,N/A,,Clear,0,1989-10-19 10:00:00
4:00 AM,59.0,53.1,81,29.99,7.0,Calm,Calm,-,N/A,,Clear,0,1989-10-19 11:00:00
5:00 AM,57.9,53.1,84,29.98,7.0,Calm,Calm,-,N/A,,Clear,0,1989-10-19 12:00:00
6:00 AM,57.9,53.1,84,29.98,6.0,Calm,Calm,-,N/A,,Drizzle,0,1989-10-19 13:00:00
7:00 AM,55.9,52.0,87,29.99,6.0,NW,6.9,-,N/A,,Drizzle,310,1989-10-19 14:00:00
8:00 AM,57.9,54.0,87,29.99,4.0,Calm,Calm,-,N/A,,Drizzle,0,1989-10-19 15:00:00
9:00 AM,63.0,55.9,78,30.00,4.0,Calm,Calm,-,N/A,,Drizzle,0,1989-10-19 16:00:00
10:00 AM,68.0,55.9,65,30.00,4.0,ENE,4.6,-,N/A,,Drizzle,60,1989-10-19 17:00:00
11:00 AM,68.0,57.0,68,30.00,5.0,NNE,8.1,-,N/A,,Drizzle,30,1989-10-19 18:00:00
12:00 PM,70.0,57.0,63,29.99,5.0,NNE,6.9,-,N/A,,Drizzle,30,1989-10-19 19:00:00
1:00 PM,72.0,55.9,57,29.97,6.0,NE,6.9,-,N/A,,Drizzle,40,1989-10-19 20:00:00
2:00 PM,73.0,55.9,55,29.94,6.0,NNE,9.2,-,N/A,,Drizzle,30,1989-10-19 21:00:00
3:00 PM,78.1,52.0,40,29.91,6.0,NW,11.5,-,N/A,,Drizzle,320,1989-10-19 22:00:00
4:00 PM,75.9,48.0,37,29.91,7.0,NW,15.0,-,N/A,,Overcast,320,1989-10-19 23:00:00
5:00 PM,75.0,51.1,43,29.90,7.0,NW,13.8,-,N/A,,Overcast,320,1989-10-20 00:00:00
6:00 PM,71.1,50.0,47,29.89,8.0,NW,11.5,-,N/A,,Overcast,320,1989-10-20 01:00:00
7:00 PM,63.0,52.0,67,29.89,10.0,WNW,10.4,-,N/A,,Overcast,300,1989-10-20 02:00:00
8:00 PM,64.9,48.0,54,29.90,10.0,NW,8.1,-,N/A,,Overcast,310,1989-10-20 03:00:00
9:00 PM,60.1,51.1,72,29.91,10.0,WNW,11.5,-,N/A,,Mostly Cloudy,300,1989-10-20 04:00:00
10:00 PM,59.0,50.0,72,29.92,10.0,WNW,12.7,-,N/A,,Partly Cloudy,300,1989-10-20 05:00:00
11:00 PM,55.0,52.0,89,29.93,10.0,NW,10.4,-,N/A,,Clear,310,1989-10-20 06:00:00